Weather in Podberez'e

Russia / Novgorod Oblast     58°42′03″N   31°24′04″E
temp.,
°C
wind,
m/s
gust,
m/s
humid.,
%
clouds,
%
prec.,
mm/h
press.,
hPa
HPBL,
m
17 august, wed
wed1700:00+20se311665 0.0 1019216
03:00+18sse28725 0.0 1019162
06:00+17se27839 0.1 1019141
09:00+23sse355828 0.1 1019328
12:00+28sse36405 0.0 10191314
15:00+30sse35345 0.0 10182140
18:00+28se364045 0.0 1017480
21:00+21ese256223 0.0 101778
18 august, thu
thu1800:00+19se29705 0.0 1018163
03:00+18ese27735 0.0 1018124
06:00+17se2677100 0.0 1018136
09:00+22se3559100 0.0 1019319
12:00+28sse344398 0.0 1019935
15:00+30ssw2337100 0.0 10191479
18:00+28wsw22478 0.0 1019220
21:00+22ene11665 0.0 102011
19 august, fri
fri1900:00+20ese22665 0.0 102142
03:00+18se26725 0.0 1022106
06:00+18se26770 0.0 1023117
09:00+23se36560 0.0 1024389
12:00+28se45400 0.0 10241394
15:00+29se56305 0.0 10232021
18:00+26sse594160 0.0 10231091
21:00+20ese276787 0.0 1024129
20 august, sat
sat2000:00+18se397258 0.0 1024213
03:00+16sse2385100 0.0 102545
06:00+16ese2586100 0.0 1025119
09:00+21se375755 0.0 1025368
12:00+26se473814 0.0 10231442
15:00+27se5835100 0.0 10212686
18:00+19se41073100 0.0 1022788
21:00+18se5128252 0.1 1022699
21 august, sun
sun2100:00+17se41175100 0.0 1021597
03:00+17se3127241 0.0 1021494
06:00+18se31064100 0.0 1020384
09:00+20se4105416 0.0 1020469
12:00+24se694773 0.0 10191433
15:00+24se6949100 0.0 10191637
18:00+22sse495599 0.0 10191098
21:00+19ese4115896 0.0 1019397